Regional Weather Roundup
Issued by NWS

Home | Current Version | Previous Version | Text Only | Print | Product List | Glossary Off
Versions: 1 2 3 4 5 6 7 8 9 10 11 12 13 14 15 16 17 18 19 20 21 22 23 24 25 26 27 28 29 30 31 32 33 34 35 36 37 38 39 40 41 42 43 44 45 46 47 48 49 50

059
ASUS43 KLSX 211507
RWRMO

WEATHER SUMMARY FOR MISSOURI
NATIONAL WEATHER SERVICE SPRINGFIELD MO
900 AM CST WED FEB 21 2018

NOTE: "FAIR" INDICATES FEW OR NO CLOUDS BELOW 12,000 FEET WITH NO
       SIGNIFICANT WEATHER AND/OR OBSTRUCTIONS TO VISIBILITY.
       CURRENT SKY AND/OR WEATHER CONDITIONS ARE NOT AVAILABLE FOR
       CHILLICOTHE AND FARMINGTON.

MOZ001>031-035>038-043-044-053-054-211600-
...NORTHERN AND WESTERN MISSOURI...

CITY           SKY/WX    TMP DP  RH WIND       PRES   REMARKS
KANSAS CTY INT CLOUDY    16  11  80 N12       30.58R WCI   3
KANSAS C DTWN  CLOUDY    19  12  74 N7        30.60R WCI  10
LEE`S SUMMIT   CLOUDY    18  15  88 N12       30.57R WCI   5
ST JOSEPH      CLOUDY    16  11  80 N8        30.63R WCI   5
CHILLICOTHE      N/A     19  13  77 N9        30.62R WCI   8
KIRKSVILLE     PTSUNNY   19  15  84 N13       30.58R WCI   6

$$
MOZ066>068-077>081-088>096-101>105-211600-
...SOUTHWEST MISSOURI...

CITY           SKY/WX    TMP DP  RH WIND       PRES   REMARKS
SPRINGFIELD    CLOUDY    26  23  88 N14       30.42S WCI  14
JOPLIN         CLOUDY    24  22  91 NE12G21   30.47R WCI  13
BRANSON        CLOUDY    28  28 100 N9        30.42R FOG     WCI  20

$$
MOZ032>034-039>042-045>050-055>058-069>072-211600-
...CENTRAL MISSOURI...

CITY           SKY/WX    TMP DP  RH WIND       PRES   REMARKS
COLUMBIA       PTSUNNY   25  20  81 N16       30.52S WCI  12
JEFFERSON CITY CLOUDY    25  20  81 N9        30.53F WCI  15
ROLLA          CLOUDY    25  23  92 N12       30.47F WCI  14
SEDALIA        CLOUDY    23  21  92 N14       30.54S WCI  11
WHITEMAN AFB   PTSUNNY   21  17  83 N12       30.49S WCI  10
WARRENSBURG    PTSUNNY   21  18  86 N6        30.56S WCI  14
OSAGE BEACH    CLOUDY    24  22  91 N8        30.50F WCI  15

$$
MOZ051-052-059>065-211600-
...EAST CENTRAL MISSOURI...

CITY           SKY/WX    TMP DP  RH WIND       PRES   REMARKS
ST LOUIS INTL  CLOUDY    27  23  85 N12       30.52R WCI  17
SPIRIT OF STL  CLOUDY    28  24  85 N6        30.53R WCI  22
ST CHARLES     PTSUNNY   27  22  81 N14       30.54R WCI  16

$$
MOZ072>076-082>087-097>100-106>115-211600-
...SOUTH CENTRAL AND SOUTHEAST MISSOURI...

CITY           SKY/WX    TMP DP  RH WIND       PRES   REMARKS
CAPE GIRARDEAU LGT RAIN  36  33  89 N14       30.45R WCI  27
FARMINGTON     CLOUDY    29  28  96 N6        30.47R WCI  23
POPLAR BLUFF   LGT RAIN  38  36  92 N13       30.45R WCI  30
WEST PLAINS    CLOUDY    31  29  92 NW9       30.42R WCI  23

$$



USA.gov is the U.S. government's official web portal to all federal, state and local government web resources and services.